STARLINK-2423, 47833

Orbit data source: Space-Track

STARLINK-2423, 47833 is a payload satellite owned by SpaceX/Seattle (US) in LEO that was launched on Thu, 11 Mar 2021 UTC via an FALCON 9 launch vehicle from the Air Force Eastern Test Range (AFETR). Payload-class satellites include a variety of spacecraft equipped with specific instruments for various scientific and technological missions. These include communications satellites like Starlink; space stations such as the ISS; scientific satellites like the Hubble; Earth observation satellites from companies like Planet Labs, Umbra, and HawkEye 360; GPS; miniature CubeSats for education and research; and military/defense satellites.

Loading next visibility...
Identifier
47833, 2021-018AY
Orbit
LEO
Country
Flag of USUS
Related business
Manufacturer
SpaceX/Seattle
Mission
Operational Commercial Communications
Bus & Motor
STARLINK, Unknown motor
Mass
260 kg wet, ~248 kg dry
Launch date (UTC)
2021-03-11 (5 years ago)
Launch vehicle
FALCON 9
Launch site
Air Force Eastern Test Range (AFETR)
Object type
Payload
Rocket body
Debris
Shape & HBR
Box + 1 Pan, 10.1 m
Radar Cross Section
13.562 m², Large (>1 m²)

Expand to show TLE details & history
Last TLE update: 22 hours ago

TLE from 22 hours ago
0 STARLINK-2423
1 47833U 21018AY  25292.06857570 -.00002675  00000-0 -16085-3 0  9990
2 47833  53.0527 167.3814 0001280  72.7699 287.3430 15.06381226255306
Epoch: 2025-10-19T01:38Z
TLE epoch observation values (Epoch: 2025-10-19T01:38:44.940Z)
Latitude
-0.00002°
Longitude
114.90359°
Altitude
547.884 km
Speed
7.589 km/s
True Right ascension
11h 09m 31s
True Declination
0° 00' 00"
Sunlit
Object was in daylight at epoch
Visualization orbit readout
Latitude
Unknown
Longitude
Unknown
Altitude
Unknown
Speed
Unknown
Apparent Right ascension
Unknown
Apparent Declination
Unknown
Sunlit
N/A
Visualization observer readout
Local Sidereal Time
18:56:43
Azimuth
Unknown
Elevation
Unknown
Doppler factor
Unknown
Orbital elements
Apogee altitude
548.427 km
Perigee altitude
546.654 km
Semi-major axis
6,925.677 km
Eccentricity
0.00013
Inclination
53.0527°
RAAN
167.3814°
Arg. of periapsis
72.7699°
True anomaly
287.329°
Mean anomaly
287.343°
Eccentric anomaly
287.336°
Mean motion
3.76574 °/min
Orbital period
95.6 mins
BSTAR
-0.00016085
Loading maneuver chart data...
Computing Atmospheric mass density...

Documentation

Showing up to 5 results
|